| time (UTC) | temp F | wind direction | speed MPH | gust MPH | rain 1hr in | rain 24hr in | rain mn in | humidity % | barometer mb |
| 20260510191556 | 77 | 161 | 7.0 | 12.0 | 0.00 | 0.04 | 0.01 | 96 | 1016.3 |
| 20260510190105 | 78 | 123 | 7.0 | 13.0 | 0.00 | 0.04 | 0.01 | 94 | 1016.5 |
| 20260510184610 | 78 | 152 | 6.0 | 12.0 | 0.00 | 0.04 | 0.01 | 91 | 1016.9 |
| 20260510183056 | 78 | 164 | 6.0 | 11.0 | 0.00 | 0.04 | 0.01 | 90 | 1017.0 |
| 20260510181630 | 78 | 153 | 5.0 | 12.0 | 0.00 | 0.04 | 0.01 | 94 | 1017.1 |
| 20260510180059 | 78 | 142 | 6.0 | 12.0 | 0.00 | 0.04 | 0.01 | 96 | 1017.2 |
| 20260510174605 | 76 | 159 | 8.0 | 14.0 | 0.00 | 0.05 | 0.01 | 97 | 1017.2 |
| 20260510173054 | 77 | 183 | 7.0 | 15.0 | 0.00 | 0.05 | 0.01 | 96 | 1017.4 |
| 20260510171618 | 78 | 136 | 6.0 | 14.0 | 0.00 | 0.05 | 0.01 | 94 | 1017.5 |
| 20260510170053 | 78 | 156 | 7.0 | 12.0 | 0.00 | 0.05 | 0.01 | 95 | 1017.5 |
| 20260510164627 | 78 | 141 | 6.0 | 16.0 | 0.00 | 0.06 | 0.01 | 94 | 1017.5 |
| 20260510163057 | 78 | 155 | 4.0 | 12.0 | 0.00 | 0.06 | 0.01 | 94 | 1017.3 |
| 20260510161553 | 78 | 140 | 6.0 | 12.0 | 0.00 | 0.06 | 0.01 | 95 | 1017.2 |
| 20260510160053 | 79 | 178 | 6.0 | 10.0 | 0.00 | 0.06 | 0.01 | 94 | 1017.2 |
| 20260510154559 | 80 | 84 | 0.0 | 8.0 | 0.00 | 0.16 | 0.01 | 92 | 1017.2 |
| 20260510153058 | 80 | 84 | 2.0 | 7.0 | 0.00 | 0.16 | 0.01 | 92 | 1017.3 |
| 20260510151557 | 78 | 111 | 2.0 | 7.0 | 0.00 | 0.16 | 0.01 | 94 | 1017.2 |
| 20260510150113 | 78 | 0 | 2.0 | 5.0 | 0.00 | 0.16 | 0.01 | 98 | 1017.1 |
| 20260510144612 | 77 | 85 | 1.0 | 8.0 | 0.00 | 0.16 | 0.01 | 98 | 1017.1 |
| 20260510143055 | 77 | 73 | 2.0 | 7.0 | 0.00 | 0.16 | 0.01 | 98 | 1017.1 |
| 20260510141551 | 75 | 70 | 0.0 | 5.0 | 0.00 | 0.16 | 0.01 | 100 | 1017.2 |
| 20260510140054 | 73 | 104 | 1.0 | 4.0 | 0.00 | 0.16 | 0.01 | 100 | 1017.3 |
| 20260510134556 | 72 | 29 | 1.0 | 4.0 | 0.00 | 0.16 | 0.01 | 100 | 1017.1 |
| 20260510133053 | 72 | 55 | 0.0 | 4.0 | 0.00 | 0.16 | 0.01 | 100 | 1017.1 |
| 20260510131553 | 72 | 50 | 0.0 | 3.0 | 0.00 | 0.16 | 0.01 | 100 | 1017.1 |
| 20260510130056 | 70 | 26 | 1.0 | 4.0 | 0.00 | 0.16 | 0.01 | 100 | 1017.0 |
| 20260510124602 | 70 | 57 | 2.0 | 4.0 | 0.00 | 0.16 | 0.01 | 100 | 1016.7 |
| 20260510123053 | 69 | 0 | 0.0 | 3.0 | 0.00 | 0.16 | 0.01 | 100 | 1016.4 |
| 20260510121552 | 68 | 360 | 0.0 | 3.0 | 0.00 | 0.16 | 0.01 | 100 | 1016.1 |
| 20260510120051 | 68 | 0 | 1.0 | 3.0 | 0.00 | 0.16 | 0.01 | 100 | 1016.0 |
| 20260510114609 | 67 | 0 | 1.0 | 3.0 | 0.00 | 0.16 | 0.01 | 100 | 1015.6 |
| 20260510113059 | 67 | 360 | 0.0 | 2.0 | 0.00 | 0.16 | 0.01 | 100 | 1015.6 |
| 20260510111553 | 66 | 0 | 0.0 | 0.0 | 0.00 | 0.16 | 0.01 | 100 | 1015.2 |
| 20260510110100 | 66 | 0 | 0.0 | 0.0 | 0.00 | 0.16 | 0.01 | 100 | 1015.0 |
| 20260510104553 | 67 | 0 | 0.0 | 1.0 | 0.00 | 0.16 | 0.01 | 100 | 1014.6 |
| 20260510103056 | 67 | 360 | 0.0 | 2.0 | 0.00 | 0.16 | 0.01 | 100 | 1014.5 |
| 20260510101602 | 67 | 360 | 0.0 | 1.0 | 0.00 | 0.16 | 0.01 | 100 | 1014.4 |
| 20260510100125 | 67 | 0 | 0.0 | 1.0 | 0.00 | 0.16 | 0.01 | 100 | 1014.4 |
| 20260510094554 | 67 | 0 | 0.0 | 3.0 | 0.00 | 0.16 | 0.01 | 100 | 1014.4 |
| 20260510093132 | 67 | 360 | 0.0 | 1.0 | 0.00 | 0.16 | 0.01 | 100 | 1014.4 |
| 20260510091650 | 68 | 0 | 0.0 | 2.0 | 0.00 | 0.16 | 0.01 | 100 | 1014.2 |
| 20260510090057 | 68 | 360 | 0.0 | 3.0 | 0.00 | 0.16 | 0.01 | 100 | 1013.7 |
| 20260510084610 | 68 | 360 | 0.0 | 4.0 | 0.00 | 0.17 | 0.01 | 100 | 1013.5 |
| 20260510083055 | 68 | 360 | 0.0 | 4.0 | 0.00 | 0.17 | 0.01 | 100 | 1013.3 |
| 20260510081555 | 68 | 360 | 0.0 | 0.0 | 0.00 | 0.17 | 0.01 | 100 | 1013.0 |
| 20260510080100 | 68 | 0 | 0.0 | 3.0 | 0.00 | 0.17 | 0.01 | 100 | 1012.8 |
| 20260510074555 | 68 | 360 | 1.0 | 3.0 | 0.01 | 0.23 | 0.01 | 100 | 1012.7 |
| 20260510073057 | 68 | 360 | 1.0 | 2.0 | 0.01 | 0.23 | 0.01 | 100 | 1012.9 |
| 20260510071555 | 68 | 0 | 0.0 | 0.0 | 0.01 | 0.23 | 0.01 | 100 | 1012.8 |
| 20260510070113 | 68 | 0 | 0.0 | 2.0 | 0.01 | 0.23 | 0.01 | 100 | 1013.0 |
| 20260510064556 | 68 | 360 | 1.0 | 2.0 | 0.00 | 0.22 | 0.00 | 100 | 1013.0 |
| 20260510063051 | 68 | 0 | 0.0 | 2.0 | 0.00 | 0.22 | 0.00 | 100 | 1013.1 |
| 20260510061651 | 68 | 360 | 1.0 | 3.0 | 0.00 | 0.22 | 0.00 | 100 | 1013.2 |
| 20260510060053 | 69 | 360 | 1.0 | 2.0 | 0.00 | 0.22 | 0.00 | 100 | 1013.3 |
| 20260510054553 | 69 | 0 | 0.0 | 2.0 | 0.00 | 0.22 | 0.00 | 100 | 1013.7 |
| 20260510053057 | 69 | 0 | 0.0 | 2.0 | 0.00 | 0.22 | 0.00 | 100 | 1013.9 |
| 20260510051605 | 69 | 0 | 1.0 | 4.0 | 0.00 | 0.22 | 0.00 | 100 | 1014.0 |
| 20260510050108 | 69 | 0 | 0.0 | 2.0 | 0.00 | 0.22 | 0.00 | 100 | 1013.7 |
| 20260510044552 | 69 | 0 | 0.0 | 3.0 | 0.00 | 0.24 | 0.22 | 100 | 1013.4 |
| 20260510043058 | 69 | 0 | 0.0 | 2.0 | 0.00 | 0.24 | 0.22 | 100 | 1013.6 |
| 20260510041653 | 69 | 360 | 0.0 | 2.0 | 0.00 | 0.24 | 0.22 | 100 | 1013.8 |
| 20260510034557 | 69 | 0 | 0.0 | 2.0 | 0.00 | 0.24 | 0.22 | 100 | 1014.4 |
| 20260510033103 | 70 | 360 | 1.0 | 5.0 | 0.00 | 0.24 | 0.22 | 100 | 1014.5 |
| 20260510031552 | 70 | 360 | 1.0 | 8.0 | 0.00 | 0.24 | 0.22 | 100 | 1014.2 |
| 20260510030100 | 70 | 360 | 2.0 | 4.0 | 0.00 | 0.24 | 0.22 | 100 | 1014.0 |
| 20260510024552 | 70 | 360 | 0.0 | 2.0 | 0.00 | 0.24 | 0.22 | 100 | 1013.9 |
| 20260510023054 | 71 | 360 | 0.0 | 2.0 | 0.01 | 0.24 | 0.22 | 100 | 1013.6 |
| 20260510021641 | 71 | 360 | 1.0 | 6.0 | 0.01 | 0.24 | 0.22 | 100 | 1013.3 |
| 20260510020101 | 70 | 360 | 3.0 | 8.0 | 0.01 | 0.24 | 0.22 | 100 | 1013.2 |
| 20260510014559 | 71 | 360 | 1.0 | 5.0 | 0.01 | 0.24 | 0.22 | 100 | 1013.3 |
| 20260510013102 | 71 | 0 | 0.0 | 2.0 | 0.00 | 0.23 | 0.21 | 100 | 1013.9 |
| 20260510011555 | 71 | 360 | 1.0 | 3.0 | 0.00 | 0.23 | 0.21 | 100 | 1014.1 |
| 20260510010059 | 71 | 360 | 0.0 | 5.0 | 0.01 | 0.23 | 0.21 | 100 | 1014.2 |
| 20260510004552 | 71 | 360 | 4.0 | 15.0 | 0.01 | 0.25 | 0.21 | 100 | 1013.5 |
| 20260510003050 | 71 | 360 | 7.0 | 13.0 | 0.01 | 0.25 | 0.21 | 100 | 1012.6 |
| 20260510001557 | 71 | 360 | 5.0 | 11.0 | 0.01 | 0.25 | 0.21 | 100 | 1012.6 |
| 20260509234553 | 71 | 360 | 3.0 | 6.0 | 0.01 | 0.29 | 0.20 | 100 | 1012.7 |
| 20260509233053 | 71 | 0 | 0.0 | 5.0 | 0.01 | 0.29 | 0.20 | 100 | 1013.0 |
| 20260509231558 | 71 | 360 | 1.0 | 3.0 | 0.01 | 0.29 | 0.20 | 100 | 1013.0 |
| 20260509230054 | 71 | 360 | 1.0 | 5.0 | 0.01 | 0.29 | 0.20 | 100 | 1013.1 |
| 20260509224553 | 71 | 360 | 2.0 | 5.0 | 0.00 | 0.29 | 0.19 | 100 | 1012.8 |
| 20260509223053 | 71 | 360 | 2.0 | 4.0 | 0.00 | 0.29 | 0.19 | 100 | 1012.7 |
| 20260509221627 | 71 | 360 | 2.0 | 8.0 | 0.00 | 0.29 | 0.19 | 100 | 1012.8 |
| 20260509220054 | 71 | 360 | 3.0 | 8.0 | 0.00 | 0.29 | 0.19 | 100 | 1012.2 |
| 20260509214553 | 72 | 360 | 2.0 | 4.0 | 0.00 | 0.29 | 0.19 | 100 | 1012.5 |
| 20260509213111 | 73 | 360 | 0.0 | 2.0 | 0.00 | 0.29 | 0.19 | 100 | 1012.7 |
| 20260509211601 | 72 | 360 | 1.0 | 4.0 | 0.00 | 0.29 | 0.19 | 100 | 1012.7 |
| 20260509210055 | 72 | 360 | 1.0 | 8.0 | 0.00 | 0.29 | 0.19 | 100 | 1012.7 |
| 20260509204555 | 72 | 360 | 2.0 | 11.0 | 0.00 | 0.29 | 0.19 | 100 | 1012.6 |
| 20260509203053 | 72 | 360 | 5.0 | 12.0 | 0.00 | 0.29 | 0.19 | 100 | 1011.9 |
| 20260509201643 | 71 | 360 | 7.0 | 13.0 | 0.00 | 0.29 | 0.19 | 100 | 1011.5 |
| 20260509200055 | 72 | 360 | 8.0 | 14.0 | 0.00 | 0.29 | 0.19 | 100 | 1011.4 |
| 20260509194557 | 72 | 360 | 8.0 | 14.0 | 0.00 | 0.29 | 0.19 | 100 | 1011.2 |
| 20260509193051 | 72 | 130 | 9.0 | 15.0 | 0.00 | 0.29 | 0.19 | 100 | 1011.1 |